EA7EQC-13 Weather Reports


time (UTC)temp
C
wind
direction
speed
KPH
gust
KPH
rain 1hr
cm
rain 24hr
cm
rain mn
cm
humidity
%
barometer
mb
20260503225403 14 174 6.4 16.1 0.00 0.00 0.00 75 1016.0
20260503224718 14 169 6.4 16.1 0.00 0.00 0.00 75 1016.2
20260503223603 14 161 8.0 12.9 0.00 0.00 0.00 76 1016.1
20260503222703 15 152 8.0 12.9 0.00 0.00 0.00 75 1016.3
20260503221803 15 149 6.4 11.3 0.00 0.00 0.00 75 1016.1
20260503220903 15 182 4.8 12.9 0.00 0.00 0.00 73 1016.1
20260503220003 15 170 4.8 12.9 0.00 0.00 0.00 73 1016.1
20260503215403 15 174 4.8 17.7 0.00 0.00 0.00 72 1016.0
20260503214503 16 191 8.0 17.7 0.00 0.00 0.00 71 1016.0
20260503213603 16 202 9.7 20.9 0.00 0.00 0.00 70 1015.7
20260503212703 16 187 9.7 20.9 0.00 0.00 0.00 69 1015.9
20260503211803 16 184 8.0 22.5 0.00 0.00 0.00 68 1016.0
20260503210903 16 198 11.3 22.5 0.00 0.00 0.00 67 1015.5
20260503210004 16 202 14.5 25.7 0.00 0.00 0.00 67 1015.6
20260503205403 17 197 11.3 24.1 0.00 0.00 0.00 67 1015.4
20260503204503 17 197 11.3 25.7 0.00 0.00 0.00 66 1015.3
20260503203603 17 190 11.3 22.5 0.00 0.00 0.00 65 1015.4
20260503202703 17 191 11.3 24.1 0.00 0.00 0.00 64 1015.1
20260503201803 17 187 9.7 17.7 0.00 0.00 0.00 63 1014.9
20260503200903 17 189 8.0 22.5 0.00 0.00 0.00 62 1014.8
20260503200003 17 191 8.0 27.4 0.00 0.00 0.00 61 1014.9
20260503195403 17 195 9.7 17.7 0.00 0.00 0.00 60 1014.6
20260503194503 18 193 9.7 20.9 0.00 0.00 0.00 60 1014.5
20260503193603 18 200 9.7 20.9 0.00 0.00 0.00 59 1014.2
20260503192703 18 201 9.7 17.7 0.00 0.00 0.00 58 1014.1
20260503191803 18 197 9.7 22.5 0.00 0.00 0.00 57 1014.1
20260503190903 19 200 12.9 22.5 0.00 0.00 0.00 55 1014.0
20260503190003 19 195 9.7 22.5 0.00 0.00 0.00 55 1013.7
20260503185403 20 198 9.7 22.5 0.00 0.00 0.00 54 1013.7
20260503184503 20 206 9.7 22.5 0.00 0.00 0.00 52 1013.6
20260503183603 20 205 11.3 22.5 0.00 0.00 0.00 51 1013.6
20260503182703 21 190 9.7 22.5 0.00 0.00 0.00 49 1013.5
20260503181803 21 202 12.9 25.7 0.00 0.00 0.00 50 1013.5
20260503180903 20 206 14.5 27.4 0.00 0.00 0.00 49 1013.5
20260503180004 21 204 12.9 27.4 0.00 0.00 0.00 48 1013.5
20260503175403 21 209 12.9 24.1 0.00 0.00 0.00 48 1013.5
20260503174503 21 203 11.3 20.9 0.00 0.00 0.00 48 1013.5
20260503173817 21 199 12.9 25.7 0.00 0.00 0.00 48 1013.3
20260503172703 21 206 14.5 27.4 0.00 0.00 0.00 48 1013.3
20260503171803 21 192 12.9 29.0 0.00 0.00 0.00 48 1013.3
20260503170903 21 205 12.9 24.1 0.00 0.00 0.00 50 1013.3
20260503150903 21 200 14.5 25.7 0.00 0.00 0.00 51 1013.5
20260503130903 21 172 12.9 24.1 0.00 0.00 0.00 55 1014.5
20260503080903 16 153 8.0 14.5 0.00 0.00 0.00 84 1016.3
20260503072703 16 173 6.4 12.9 0.00 0.00 0.00 85 1016.2
20260503071803 15 152 8.0 14.5 0.00 0.00 0.00 86 1016.3
20260503070903 15 149 8.0 12.9 0.00 0.00 0.00 86 1016.2
20260503054503 15 108 3.2 4.8 0.00 0.00 0.00 86 1016.0
20260503053603 14 108 4.8 6.4 0.00 0.00 0.00 87 1015.8
20260503052703 14 108 6.4 9.7 0.00 0.00 0.00 86 1015.8
20260503051803 15 108 6.4 11.3 0.00 0.00 0.00 86 1015.9
20260503050903 15 108 6.4 11.3 0.00 0.00 0.00 85 1015.9
20260503050003 15 108 4.8 9.7 0.00 0.00 0.00 85 1016.0
20260503045403 15 108 3.2 6.4 0.00 0.00 0.00 84 1016.0
20260503044503 15 108 3.2 11.3 0.00 0.00 0.00 84 1015.8
20260503043818 15 109 3.2 6.4 0.00 0.00 0.00 84 1015.9
20260503042703 15 112 3.2 6.4 0.00 0.00 0.00 83 1015.9
20260503041803 15 117 3.2 6.4 0.00 0.00 0.00 83 1015.9
20260503040903 15 116 3.2 6.4 0.00 0.00 0.00 82 1016.0
20260503040003 15 122 3.2 9.7 0.00 0.00 0.00 82 1015.8
20260503035403 15 125 3.2 9.7 0.00 0.00 0.00 83 1015.9
20260503034503 15 122 3.2 9.7 0.00 0.00 0.00 83 1016.0
20260503033603 15 127 3.2 6.4 0.00 0.00 0.00 84 1016.1
20260503032703 15 128 4.8 11.3 0.00 0.00 0.00 84 1016.0
20260503031803 15 128 6.4 11.3 0.00 0.00 0.00 84 1016.2
20260503030903 15 138 6.4 11.3 0.00 0.00 0.00 83 1016.4
20260503030003 15 136 6.4 12.9 0.00 0.00 0.00 85 1016.1
20260503025403 15 139 6.4 12.9 0.00 0.00 0.00 84 1016.1
20260503024503 15 143 3.2 9.7 0.00 0.00 0.00 84 1016.2
20260503023603 15 142 3.2 11.3 0.00 0.00 0.00 84 1016.4
20260503022703 15 159 6.4 14.5 0.00 0.00 0.00 85 1016.6
20260503022018 15 170 4.8 11.3 0.00 0.00 0.00 85 1016.7
20260503020903 15 149 4.8 12.9 0.00 0.00 0.00 86 1016.7
20260503020217 15 158 6.4 14.5 0.00 0.00 0.00 86 1016.8
20260503015403 15 160 4.8 11.3 0.00 0.00 0.00 86 1016.8
20260503014503 15 172 4.8 11.3 0.00 0.00 0.00 86 1016.9
20260503013603 15 189 8.0 16.1 0.00 0.00 0.00 86 1016.7
20260503012703 15 182 6.4 14.5 0.00 0.00 0.00 87 1016.7
20260503011803 15 181 6.4 14.5 0.00 0.00 0.00 87 1016.9
20260503010903 16 186 6.4 16.1 0.00 0.00 0.00 87 1016.8
20260503010003 16 191 9.7 17.7 0.00 0.00 0.00 87 1017.0
20260503005403 16 193 9.7 17.7 0.00 0.00 0.00 86 1017.1
20260503004503 16 192 9.7 20.9 0.00 0.00 0.00 86 1017.2
20260503003603 16 196 9.7 17.7 0.00 0.00 0.00 86 1017.0
20260503002703 16 192 9.7 20.9 0.00 0.00 0.00 86 1017.1
20260503001803 16 183 8.0 20.9 0.00 0.00 0.00 86 1017.2
20260503000903 16 179 6.4 14.5 0.00 0.00 0.00 86 1017.3
20260503000007 16 164 6.4 14.5 0.00 0.00 0.00 86 1017.3
20260502235618 16 161 6.4 16.1 0.00 0.00 0.00 86 1017.5
20260502234503 16 158 6.4 14.5 0.00 0.00 0.00 86 1017.3
20260502233603 16 166 6.4 16.1 0.00 0.00 0.00 86 1017.3
20260502232703 16 162 8.0 14.5 0.00 0.00 0.00 86 1017.4
20260502231803 16 159 8.0 16.1 0.00 0.00 0.00 86 1017.5
20260502230903 16 162 8.0 16.1 0.00 0.00 0.00 86 1017.3
20260502230004 16 157 6.4 14.5 0.00 0.00 0.00 86 1017.3